Regional Weather Roundup
Issued by NWS Albany, NY

Current Version | Previous Version | Graphics & Text | Print | Product List | Glossary Off
Versions: 1 2 3 4 5 6 7 8 9 10 11 12 13 14 15 16 17 18 19 20 21 22 23 24 25 26 27 28 29 30 31 32 33 34 35 36 37 38 39 40 41 42 43 44 45 46 47 48 49 50

000
ASUS41 KALY 220110
RWRALY

NEW YORK STATE HOURLY WEATHER ROUNDUP
NATIONAL WEATHER SERVICE ALBANY NY
900 PM EDT SUN SEP 21 2014

NOTE: "FAIR" INDICATES FEW OR NO CLOUDS BELOW 12,000 FEET WITH NO
SIGNIFICANT WEATHER AND/OR NO OBSTRUCTIONS TO VISIBILITY.

NYZ032-033-038>043-046>054-057>066-NYZ062>081-220200-
EAST


CITY           SKY/WX    TMP DP  RH WIND       PRES   REMARKS
ALBANY         MOCLDY    74  65  73 S10       29.57F
GLENS FALLS    MOCLDY    71  64  78 SW5       29.56F
POUGHKEEPSIE   PTCLDY    68  66  93 CALM      29.60S
NEWBURGH       MOCLDY    68  66  94 CALM      29.63S
MONTGOMERY     PTCLDY    67  64  90 SW3       29.62R
WHITE PLAINS   PTCLDY    66  65  96 CALM      29.62F FOG
ISLIP          MOCLDY    69  67  93 CALM      29.59F FOG
NEW YORK CITY  PTCLDY    73  67  81 S7        29.61F
CENTRAL PARK   PTCLDY    71  65  81 W3        29.64F
$$

NYZ005>009-017-018-044>046-055-056-220200-
CENTRAL


CITY           SKY/WX    TMP DP  RH WIND       PRES   REMARKS
FULTON         PTCLDY    63  52  67 SW6       29.61S
SYRACUSE       MOCLDY    62  59  90 S5        29.62S
ROME           LGT RAIN  59  58  96 NE5       29.63S
ELMIRA         LGT RAIN  64  56  75 W7        29.67R
BINGHAMTON     MOCLDY    62  60  93 CALM      29.69R
MONTICELLO     MOCLDY    66  57  72 SW6       29.67R
$$

NYZ026>034-041>043-220200-
NORTH


CITY           SKY/WX    TMP DP  RH WIND       PRES   REMARKS
WATERTOWN      PTCLDY    66  55  67 S7        29.57S
FORT DRUM      NOT AVBL
MASSENA        PTCLDY    66  62  87 SW9       29.54S
SARANAC LAKE   CLOUDY    60  60 100 SW3       29.59F
PLATTSBURGH    CLOUDY    67  64  90 VRB3      29.55S
$$

NYZ001>004-010>016-019>021-220200-
WEST


CITY           SKY/WX    TMP DP  RH WIND       PRES   REMARKS
NIAGARA FALLS  MOCLDY    62  51  67 W13       29.64R
BUFFALO        MOCLDY    63  51  65 W13       29.65R
DUNKIRK        LGT RAIN  60  54  80 SW10G22   29.69R
JAMESTOWN      MOCLDY    55  50  82 SW15G21   29.73R
WELLSVILLE     CLEAR     57  49  74 W7        29.73R
ROCHESTER      PTCLDY    63  54  72 SW8       29.63R
PENN YAN       MOCLDY    63  51  65 W12       29.67R
$$

             KEY
       WCI = WIND CHILL INDEX
       VSB = VISIBILITY
       HX  = HEAT INDEX
$$


USA.gov is the U.S. government's official web portal to all federal, state and local government web resources and services.